This demonstration page uses our WeatherBlox Daily Observations layout. Learn more.

Left ArrowRight Arrow

39.51506, -84.39828

Hourly Observations for January 6, 2019

Temp ( °F °C ) Dew Point ( °F °C ) Humidity (%) Winds ( mph kmh ) Pressure ( in mb ) Visibility ( mi km ) Precip ( " mm )
12:15 am 00:15 Clear 38 3.5 37 2.5 93 93 SSW 5 7 30.06 1018 10 16 0.00 0.00
12:35 am 00:35 Clear 37 2.6 35 1.9 95 95 Calm 30.09 1019 10 16 0.00 0.00
12:55 am 00:55 Clear 38 3.5 36 2.2 91 91 SSE 6 9 30.09 1019 10 16 0.00 0.00
1:15 am 01:15 Clear 37 2.9 36 2 94 94 SSE 5 7 30.09 1019 10 16 0.00 0.00
1:35 am 01:35 Clear 35 1.9 34 1 94 94 Calm 30.09 1019 10 16 0.00 0.00
1:55 am 01:55 Clear 37 2.7 36 2.2 97 97 Calm 30.09 1019 10 16 0.00 0.00
2:15 am 02:15 Clear 35 1.4 33 0.7 95 95 Calm 30.12 1020 7 11 0.00 0.00
2:35 am 02:35 Clear with Mist and Fog 32 0 31 -0.3 98 98 Calm 30.12 1020 4 6 0.00 0.00
2:55 am 02:55 Mostly Cloudy with Mist and Fog 33 0.5 32 0.2 98 98 Calm 30.12 1020 1 1 0.00 0.00
3:15 am 03:15 Mostly Cloudy with Fog 32 -0.1 32 -0.2 99 99 Calm 30.12 1020 0 0 0.00 0.00
3:35 am 03:35 Mostly Cloudy with Fog 33 0.4 33 0.3 99 99 WSW 3 6 30.12 1020 1 1 0.00 0.00
3:55 am 03:55 Mostly Cloudy with Freezing Fog 31 -0.6 31 -0.8 99 99 Calm 30.12 1020 1 1 0.00 0.00
4:15 am 04:15 Mostly Cloudy with Freezing Fog 30 -1.1 30 -1.3 99 99 Calm 30.12 1020 0 0 0.00 0.00
4:35 am 04:35 Mostly Cloudy with Freezing Fog 30 -1.2 30 -1.2 100 100 Calm 30.15 1021 0 0 0.00 0.00
4:55 am 04:55 Mostly Cloudy with Freezing Fog 30 -1.3 29 -1.4 99 99 Calm 30.15 1021 0 0 0.00 0.00
5:15 am 05:15 Mostly Cloudy with Freezing Fog 28 -2.2 28 -2.4 99 99 Calm 30.15 1021 0 0 0.00 0.00
5:35 am 05:35 Mostly Cloudy with Freezing Fog 28 -2.1 28 -2.3 99 99 Calm 30.15 1021 0 0 0.00 0.00
5:55 am 05:55 Mostly Cloudy with Freezing Fog 28 -2.1 28 -2.3 99 99 Calm 30.18 1022 0 0 0.00 0.00
6:15 am 06:15 Mostly Cloudy with Freezing Fog 28 -2.2 28 -2.3 99 99 Calm 30.18 1022 1 1 0.00 0.00
6:35 am 06:35 Mostly Cloudy with Freezing Fog 26 -3.1 26 -3.5 97 97 Calm 30.18 1022 0 0 0.00 0.00
6:55 am 06:55 Mostly Clear with Freezing Fog 28 -2.2 28 -2.4 99 99 Calm 30.18 1022 0 0 0.00 0.00
7:15 am 07:15 Mostly Clear with Freezing Fog 27 -2.7 27 -3 98 98 Calm 30.21 1023 0 0 0.00 0.00
7:35 am 07:35 Cloudy with Freezing Fog 28 -2.3 28 -2.5 99 99 Calm 30.21 1023 0 0 0.00 0.00
7:55 am 07:55 Cloudy with Freezing Fog 28 -2.4 27 -2.6 99 99 Calm 30.21 1023 5 8 0.00 0.00
8:15 am 08:15 Cloudy with Freezing Fog 28 -2.2 28 -2.5 98 98 Calm 30.24 1024 5 8 0.00 0.00
8:35 am 08:35 Cloudy with Freezing Fog 29 -1.9 28 -2.1 99 99 Calm 30.24 1024 5 8 0.00 0.00
8:55 am 08:55 Cloudy with Freezing Fog 30 -1.2 29 -1.4 99 99 Calm 30.24 1024 5 8 0.00 0.00
9:15 am 09:15 Partly Cloudy with Freezing Fog 30 -1 30 -1.2 99 99 Calm 30.27 1025 5 8 0.00 0.00
9:35 am 09:35 Mostly Cloudy with Fog 32 0 32 -0.1 99 99 Calm 30.27 1025 0 0 0.00 0.00
9:55 am 09:55 Sunny with Mist and Fog 36 2.2 36 2.1 99 99 Calm 30.30 1026 3 4 0.00 0.00
10:15 am 10:15 Sunny with Mist and Fog 38 3.4 38 3.3 99 99 Calm 30.30 1026 5 8 0.00 0.00
10:35 am 10:35 Sunny 40 4.4 40 4.2 99 99 NE 7 11 30.30 1026 7 11 0.00 0.00
10:55 am 10:55 Sunny 42 5.3 40 4.2 93 93 ENE 7 11 30.30 1026 10 16 0.00 0.00
11:15 am 11:15 Partly Cloudy 43 5.9 39 4 88 88 NE 6 9 30.30 1026 10 16 0.00 0.00
11:35 am 11:35 Sunny 44 6.8 40 4.3 84 84 E 6 9 30.27 1025 10 16 0.00 0.00
11:55 am 11:55 Sunny 45 7.1 39 3.8 80 80 NE 8 13 30.24 1024 10 16 0.00 0.00
12:15 pm 12:15 Sunny 46 7.8 39 4 77 77 ENE 6 9 30.24 1024 10 16 0.00 0.00
12:35 pm 12:35 Sunny 45 7.1 39 3.7 79 79 NE 6 9 30.24 1024 10 16 0.00 0.00
12:55 pm 12:55 Sunny 46 7.5 38 3.2 74 74 NE 6 9 30.24 1024 10 16 0.00 0.00
1:15 pm 13:15 Sunny 46 7.7 38 3.1 73 73 NE 5 7 30.24 1024 10 16 0.00 0.00
1:35 pm 13:35 Sunny 47 8.2 38 3.2 71 71 ENE 8 13 30.21 1023 10 16 0.00 0.00
1:55 pm 13:55 Sunny 48 9.1 38 3.1 66 66 E 7 11 30.21 1023 10 16 0.00 0.00
2:15 pm 14:15 Sunny 49 9.3 37 2.6 63 63 E 8 13 30.21 1023 10 16 0.00 0.00
2:35 pm 14:35 Sunny 49 9.2 37 2.8 65 65 ENE 8 13 30.21 1023 10 16 0.00 0.00
2:55 pm 14:55 Sunny 49 9.4 37 2.8 64 64 NE 7 11 30.21 1023 10 16 0.00 0.00
3:15 pm 15:15 Sunny 49 9.6 37 2.7 62 62 NE 8 13 30.21 1023 10 16 0.00 0.00
3:35 pm 15:35 Sunny 50 9.8 37 2.7 62 62 E 7 11 30.21 1023 10 16 0.00 0.00
3:55 pm 15:55 Sunny 49 9.3 37 2.6 63 63 E 7 11 30.24 1024 10 16 0.00 0.00
4:15 pm 16:15 Sunny 49 9.3 37 3 65 65 E 5 7 30.24 1024 10 16 0.00 0.00
4:35 pm 16:35 Sunny 47 8.2 37 2.8 69 69 E 5 7 30.24 1024 10 16 0.00 0.00
4:55 pm 16:55 Sunny 45 7.4 37 2.8 73 73 ENE 6 9 30.24 1024 10 16 0.00 0.00
5:15 pm 17:15 Sunny 44 6.5 37 2.9 78 78 ENE 7 11 30.24 1024 10 16 0.00 0.00
5:35 pm 17:35 Clear 44 6.7 38 3.1 78 78 ENE 6 9 30.24 1024 10 16 0.00 0.00
5:55 pm 17:55 Clear 44 6.5 37 3 79 79 ENE 6 9 30.24 1024 10 16 0.00 0.00
6:15 pm 18:15 Clear 44 6.4 37 3 79 79 E 6 9 30.27 1025 10 16 0.00 0.00
6:35 pm 18:35 Clear 43 6.2 37 3 80 80 E 7 11 30.24 1024 10 16 0.00 0.00
6:55 pm 18:55 Clear 42 5.7 37 2.9 82 82 ENE 6 9 30.30 1026 10 16 0.00 0.00
7:15 pm 19:15 Clear 43 6.1 38 3.1 81 81 ENE 8 13 30.27 1025 10 16 0.00 0.00
7:35 pm 19:35 Clear 43 6.2 38 3.1 81 81 ENE 8 13 30.27 1025 10 16 0.00 0.00
7:55 pm 19:55 Clear 43 6.2 37 2.9 80 80 ENE 9 15 30.27 1025 10 16 0.00 0.00
8:15 pm 20:15 Clear 43 6 37 2.8 80 80 ENE 9 15 30.30 1026 10 16 0.00 0.00
8:35 pm 20:35 Clear 43 5.9 36 2.4 78 78 ENE 10 17 30.30 1026 10 16 0.00 0.00
8:55 pm 20:55 Clear 42 5.8 36 2.2 78 78 ENE 6 9 30.30 1026 10 16 0.00 0.00
9:15 pm 21:15 Clear 42 5.5 35 1.9 78 78 ENE 8 13 30.30 1026 10 16 0.00 0.00
9:35 pm 21:35 Clear 42 5.6 35 1.8 77 77 ENE 8 13 30.30 1026 10 16 0.00 0.00
9:55 pm 21:55 Clear 42 5.6 35 1.6 76 76 ENE 6 9 30.30 1026 10 16 0.00 0.00
10:15 pm 22:15 Clear 42 5.5 35 1.4 75 75 ENE 6 9 30.30 1026 10 16 0.00 0.00
10:35 pm 22:35 Clear 42 5.6 34 1.3 74 74 ENE 6 9 30.30 1026 10 16 0.00 0.00
10:55 pm 22:55 Clear 42 5.6 34 1.3 74 74 E 7 11 30.30 1026 10 16 0.00 0.00
11:15 pm 23:15 Clear 42 5.8 34 1.2 73 73 ENE 12 19 30.24 1024 10 16 0.00 0.00
11:35 pm 23:35 Partly Cloudy 42 5.8 34 1 72 72 E 9 15 30.24 1024 10 16 0.00 0.00
11:55 pm 23:55 Clear 43 6 34 0.9 70 70 ESE 3 6 30.30 1026 10 16 0.00 0.00

Powered by AerisWeather